Svetlograd, Russia
Current Conditions -  °F | °C
As of 6:00 AM on Monday 24 Nov 2014 (Local Time) from URMT Reporting Station
Clear Clear  
Wind Chill: 19°   Ceiling: Unl
Heat Index: 19°   Visibility: 6mi
Dew Point: 19°   Wind: 2mph
Humidity: 100%   Direction: 190°S
Pressure: 30.27"   Gusts: NA
Location:  45.34°N, 42.85°E
Report Text: URMT 240300Z 19001MPS CAVOK M07/M07 Q1025 NOSIG RMK QFE730SC060
Loading
Personal Weather Stations






























Interactive Weather Map New forecast layout! Learn more

10-Day Weather Forecast

Advertisements
Track Severe Weather on mobile